This demonstration page uses our WeatherBlox Daily Observations layout. Learn more.

Hourly Observations for January 7, 2019

Temp ( °F °C ) Dew Point ( °F °C ) Humidity (%) Winds ( mph kmh ) Pressure ( in mb ) Visibility ( mi km ) Precip ( " mm )
12:15 am 00:15 Partly Cloudy 35 1.8 33 0.3 90 90 WSW 5 7 29.68 1005 7 11.265408 0 0
12:35 am 00:35 Cloudy 37 2.9 33 0.6 85 85 W 5 7 29.68 1005 10 16.09344 0 0
12:55 am 00:55 Cloudy 40 4.5 33 0.6 76 76 W 6 9 29.65 1004 10 16.09344 0 0
1:15 am 01:15 Cloudy 41 4.8 33 0.5 74 74 NW 6 9 29.65 1004 10 16.09344 0 0
1:35 am 01:35 Cloudy 40 4.7 33 0.5 74 74 NW 8 13 29.65 1004 10 16.09344 0 0
1:55 am 01:55 Cloudy 41 5 33 0.4 72 72 NW 12 19 29.65 1004 10 16.09344 0 0
2:15 am 02:15 Cloudy 42 5.3 33 0.4 71 71 WNW 14 22 29.65 1004 10 16.09344 0 0
2:35 am 02:35 Cloudy 40 4.6 32 0.2 73 73 WNW 10 17 29.65 1004 10 16.09344 0 0
2:55 am 02:55 Cloudy 40 4.3 33 0.3 75 75 WNW 7 11 29.68 1005 10 16.09344 0 0
3:15 am 03:15 Mostly Cloudy 39 4.1 32 0.1 75 75 W 7 11 29.68 1005 10 16.09344 0 0
3:35 am 03:35 Partly Cloudy 40 4.3 32 0 74 74 WNW 9 15 29.68 1005 10 16.09344 0 0
3:55 am 03:55 Partly Cloudy 42 5.7 32 0 67 67 WNW 17 28 29.68 1005 10 16.09344 0 0
4:15 am 04:15 Partly Cloudy 43 6 32 -0.2 65 65 WNW 18 30 29.71 1006 10 16.09344 0 0
4:35 am 04:35 Partly Cloudy 42 5.5 31 -0.6 65 65 WNW 17 28 29.71 1006 10 16.09344 0 0
4:55 am 04:55 Clear 41 5 30 -1 66 66 WNW 17 28 29.71 1006 10 16.09344 0 0
5:15 am 05:15 Clear 41 5 30 -1.2 65 65 WNW 21 33 29.74 1007 10 16.09344 0 0
5:35 am 05:35 Clear 40 4.7 29 -1.5 64 64 WNW 18 30 29.74 1007 10 16.09344 0 0
5:55 am 05:55 Clear 40 4.5 29 -1.6 65 65 WNW 20 31 29.74 1007 10 16.09344 0 0
6:15 am 06:15 Clear 39 4.1 29 -1.8 66 66 WNW 21 33 29.74 1007 10 16.09344 0 0
6:35 am 06:35 Clear 39 4 28 -2 65 65 WNW 18 30 29.8 1009 10 16.09344 0 0
6:55 am 06:55 Clear 38 3.5 28 -2 68 68 WNW 16 26 29.8 1009 10 16.09344 0 0
7:15 am 07:15 Clear 38 3.3 28 -2.1 68 68 WNW 17 28 29.83 1010 10 16.09344 0 0
7:35 am 07:35 Clear 37 3 28 -2.2 69 69 WNW 15 24 29.83 1010 10 16.09344 0 0
7:55 am 07:55 Clear 37 2.6 28 -2.4 70 70 NW 13 20 29.83 1010 10 16.09344 0 0
8:15 am 08:15 Sunny 37 2.5 28 -2.4 70 70 WNW 14 22 29.83 1010 10 16.09344 0 0
8:35 am 08:35 Sunny 36 2.2 28 -2.5 71 71 WNW 13 20 29.83 1010 10 16.09344 0 0
8:55 am 08:55 Sunny 36 2 28 -2.2 74 74 WNW 6 9 29.83 1010 10 16.09344 0 0
9:15 am 09:15 Sunny 37 2.5 28 -2 73 73 NW 7 11 29.83 1010 10 16.09344 0 0
9:35 am 09:35 Sunny 38 3.1 29 -1.9 70 70 WNW 10 17 29.83 1010 10 16.09344 0 0
9:55 am 09:55 Sunny 39 3.8 28 -2.1 66 66 WNW 13 20 29.85 1011 10 16.09344 0 0
10:15 am 10:15 Sunny 39 4.1 28 -2.3 63 63 WNW 14 22 29.88 1012 10 16.09344 0 0
10:35 am 10:35 Sunny 41 4.9 28 -2.3 60 60 WNW 15 24 29.83 1010 10 16.09344 0 0
10:55 am 10:55 Sunny 42 5.5 28 -2.1 58 58 WNW 14 22 29.83 1010 10 16.09344 0 0
11:15 am 11:15 Sunny 42 5.6 28 -2.3 57 57 WNW 17 28 29.83 1010 10 16.09344 0 0
11:35 am 11:35 Sunny 42 5.4 28 -2 59 59 NW 13 20 29.83 1010 10 16.09344 0 0
11:55 am 11:55 Sunny 42 5.8 28 -2.2 57 57 WNW 12 19 29.83 1010 10 16.09344 0 0
12:15 pm 12:15 Sunny 42 5.5 29 -1.8 60 60 WNW 9 15 29.8 1009 10 16.09344 0 0
12:35 pm 12:35 Sunny 42 5.3 30 -1 64 64 W 8 13 29.8 1009 10 16.09344 0 0
12:55 pm 12:55 Sunny 42 5.5 29 -1.5 61 61 W 8 13 29.8 1009 10 16.09344 0 0
1:15 pm 13:15 Sunny 43 6 29 -1.7 58 58 W 7 11 29.8 1009 10 16.09344 0 0
1:35 pm 13:35 Sunny 43 6.3 29 -1.8 57 57 W 8 13 29.8 1009 10 16.09344 0 0
1:55 pm 13:55 Partly Cloudy 43 6.1 31 -0.7 62 62 W 7 11 29.8 1009 10 16.09344 0 0
2:15 pm 14:15 Partly Cloudy 44 6.5 31 -0.7 60 60 WSW 7 11 29.8 1009 10 16.09344 0 0
2:35 pm 14:35 Sunny 45 7.3 30 -1.1 56 56 W 9 15 29.8 1009 10 16.09344 0 0
2:55 pm 14:55 Sunny 47 8.3 29 -1.8 49 49 W 3 6 29.77 1008 10 16.09344 0 0
3:15 pm 15:15 Sunny 47 8.4 30 -1.3 51 51 W 6 9 29.77 1008 10 16.09344 0 0
3:35 pm 15:35 Sunny 47 8.5 32 -0.2 55 55 W 6 9 29.77 1008 10 16.09344 0 0
3:55 pm 15:55 Sunny 46 8 32 -0.2 57 57 WSW 7 11 29.77 1008 10 16.09344 0 0
4:15 pm 16:15 Sunny 46 7.6 31 -0.5 57 57 WSW 7 11 29.77 1008 10 16.09344 0 0
4:35 pm 16:35 Sunny 43 6 31 -0.8 62 62 SW 9 15 29.8 1009 10 16.09344 0 0
4:55 pm 16:55 Sunny 42 5.7 30 -1.1 62 62 SSW 8 13 29.8 1009 10 16.09344 0 0
5:15 pm 17:15 Partly Cloudy 40 4.7 30 -1.3 65 65 SW 7 11 29.85 1011 10 16.09344 0 0
5:35 pm 17:35 Mostly Cloudy 43 6 29 -1.5 59 59 SW 14 22 29.83 1010 10 16.09344 0 0
5:55 pm 17:55 Partly Cloudy 41 5.2 29 -1.5 62 62 SW 9 15 29.83 1010 10 16.09344 0 0
6:15 pm 18:15 Clear 40 4.5 29 -1.5 65 65 SW 13 20 29.85 1011 10 16.09344 0 0
6:35 pm 18:35 Clear 42 5.8 30 -1.3 61 61 SW 17 28 29.83 1010 10 16.09344 0 0
6:55 pm 18:55 Clear 43 6.2 30 -1.3 59 59 SW 14 22 29.83 1010 10 16.09344 0 0
7:15 pm 19:15 Clear 43 6.2 28 -2 56 56 SW 12 19 29.83 1010 10 16.09344 0 0
7:35 pm 19:35 Partly Cloudy 44 6.5 29 -1.8 56 56 SW 15 24 29.83 1010 10 16.09344 0 0
7:55 pm 19:55 Partly Cloudy 43 5.9 29 -1.5 59 59 SW 12 19 29.85 1011 10 16.09344 0 0
8:15 pm 20:15 Partly Cloudy 43 5.9 29 -1.5 59 59 WSW 10 17 29.85 1011 10 16.09344 0 0
8:35 pm 20:35 Partly Cloudy 43 6.1 29 -1.9 57 57 WSW 9 15 29.85 1011 10 16.09344 0 0
8:55 pm 20:55 Clear 44 6.6 28 -2.5 53 53 W 24 39 29.85 1011 10 16.09344 0 0
9:15 pm 21:15 Clear 46 7.7 26 -3.2 46 46 W 26 43 29.88 1012 10 16.09344 0 0
9:35 pm 21:35 Clear 46 7.6 26 -3.6 45 45 WNW 28 44 29.91 1013 10 16.09344 0 0
9:55 pm 21:55 Clear 45 7.2 25 -3.8 46 46 WNW 29 46 29.91 1013 10 16.09344 0 0
10:15 pm 22:15 Clear 44 6.6 28 -2.3 53 53 WNW 30 48 29.94 1014 10 16.09344 0 0
10:35 pm 22:35 Clear 43 5.9 28 -2.2 56 56 WNW 29 46 29.97 1015 10 16.09344 0 0
10:55 pm 22:55 Clear 42 5.6 27 -2.7 56 56 WNW 31 50 30 1016 10 16.09344 0 0
11:15 pm 23:15 Clear 41 5.1 27 -2.7 57 57 WNW 30 48 30.03 1017 10 16.09344 0 0
11:35 pm 23:35 Clear 39 4.1 27 -2.6 62 62 WNW 28 44 30.03 1017 10 16.09344 0 0
11:55 pm 23:55 Clear 39 4 27 -2.6 62 62 WNW 25 41 30.06 1018 10 16.09344 0 0

Powered by AerisWeather